[Date Prev][Date Next][Thread Prev][Thread Next] - [Date Index][Thread Index][Author Index]
2 Line ISS Keps 9-11
- Subject: [sarex] 2 Line ISS Keps 9-11
- From: "Dave Larsen PhD" <doc@xxxxxxxxxxx>
- Date: Wed, 10 Sep 2003 23:00:42 -0700
ISS
1 25544U 98067A 03254.14790822 .00013392 00000-0 15444-3 0 4801
2 25544 51.6319 307.2994 0005922 231.1477 169.7588 15.62269702274438
----
Via the sarex mailing list at AMSAT.ORG courtesy of AMSAT-NA.
To unsubscribe, send "unsubscribe sarex" to Majordomo@amsat.org
AMSAT Home